AO-07 1 07530U 74089B 26125.54439145 -.00000051 00000-0 -30788-4 0 9992 2 07530 101.9923 138.3437 0012044 211.0056 271.0198 12.53697392355173 UO-11 1 14781U 84021B 26125.79987178 .00001347 00000-0 14304-3 0 9998 2 14781 97.8030 91.8597 0006875 335.5197 24.5694 14.90683849250816 AO-27 1 22825U 93061C 26125.76565730 .00000099 00000-0 54873-4 0 9992 2 22825 98.6895 193.1900 0007658 218.5647 141.4990 14.30930685700934 FO-29 1 24278U 96046B 26125.50196167 -.00000029 00000-0 75453-5 0 9990 2 24278 98.5286 340.2096 0349378 207.0622 151.1922 13.53272313467390 GO-32 1 25397U 98043D 26125.49700664 .00000062 00000-0 46969-4 0 9998 2 25397 99.0064 117.1819 0001390 27.1219 333.0031 14.24419970445253 ISS 1 25544U 98067A 26125.87701392 .00006839 00000-0 13163-3 0 9996 2 25544 51.6305 149.5338 0007380 27.3797 332.7579 15.49110216565190 NO-44 1 26931U 01043C 26125.76291122 .00000138 00000-0 82479-4 0 9991 2 26931 67.0522 354.0008 0006362 263.7310 96.3067 14.31939651284371 SO-50 1 27607U 02058C 26125.73900271 .00001339 00000-0 17487-3 0 9998 2 27607 64.5522 260.3078 0075634 270.2051 89.0388 14.82956631258169 CO-55 1 27844U 03031E 26124.97474137 .00000276 00000-0 13844-3 0 9997 2 27844 98.6750 134.0757 0008650 316.6955 43.3544 14.24308653185523 RS-22 1 27939U 03042A 26125.84618134 .00001572 00000-0 25057-3 0 9997 2 27939 98.3465 309.0115 0012251 47.5486 64.7359 14.73395311209317 CO-65 1 32785U 08021C 26125.88298743 .00005574 00000-0 35588-3 0 9994 2 32785 97.8268 106.4421 0009400 161.9372 198.2192 15.09058443978811 CO-66 1 32791U 08021J 26125.48367313 .00019885 00000-0 65895-3 0 9991 2 32791 97.7528 121.3956 0005097 99.4422 260.7394 15.31314764980755 RS-30 1 32953U 08025A 26125.76699628 .00000105 00000-0 68156-3 0 9991 2 32953 82.5078 21.8261 0020504 45.5036 314.7716 12.43178175814425 SRMSAT 1 37841U 11058D 26125.89120411 .00000415 00000-0 81577-4 0 9992 2 37841 19.9732 315.4812 0011782 98.6658 33.5392 14.11566136751834 ZACUBE-1 1 39417U 13066B 26125.80992047 .00005477 00000-0 42717-3 0 9992 2 39417 97.8131 87.9184 0042921 35.5949 324.8124 15.00858403674370 Delfi-N3xt 1 39428U 13066N 26125.73905360 .00009245 00000-0 81277-3 0 9999 2 39428 97.8357 46.1047 0075001 349.6294 10.3375 14.94596291668288 GOMX-1 1 39430U 13066Q 26125.82880855 .00002191 00000-0 33522-3 0 9996 2 39430 97.6508 328.9613 0128004 213.0391 146.2772 14.69298604663690 LO-74 1 39440U 13066AA 26125.78981831 .00003633 00000-0 33993-3 0 9992 2 39440 97.8882 74.6084 0058296 166.4702 193.8096 14.93455257670665 AO-73 1 39444U 13066AE 26125.49081256 .00009121 00000-0 57328-3 0 9992 2 39444 97.8257 96.0714 0036263 352.2859 7.7806 15.08930139673222 DTUSAT-2 1 40030U 14033W 26125.56321461 .00007520 00000-0 41242-3 0 9992 2 40030 98.0872 120.6062 0008691 32.8973 327.2796 15.14465389646239 LILACSAT-2 1 40908U 15049K 26125.87688321 .00019996 00000-0 35674-3 0 9991 2 40908 97.4703 161.1444 0008280 58.8370 301.3692 15.50073783589198 Horyu-4 1 41340U 16012D 26124.89302101 .00165435 00000-0 10074-2 0 9999 2 41340 30.9903 31.3534 0006241 316.1635 43.8525 15.75826777563944 Lapan A3 1 41603U 16040E 26125.82731439 .00004221 00000-0 13525-3 0 9996 2 41603 97.1492 123.3761 0010955 157.7216 202.4505 15.32838308548321 CAS-2T 1 41847U 16066G 26125.78143150 .00000747 00000-0 11521-3 0 9999 2 41847 98.3827 201.9968 0340892 258.1937 98.0835 14.44581868498675 TechnoSat 1 42829U 17042E 26125.42635560 .00003808 00000-0 27398-3 0 9997 2 42829 97.4249 284.7320 0016129 236.2788 123.6902 15.04703888480271 AO-91 1 43017U 17073E 26125.53146821 .00010398 00000-0 45667-3 0 9991 2 43017 97.4753 353.6353 0154141 115.6338 246.0909 15.11945005458944 S-Net D 1 43186U 18014G 26125.70363284 .00005411 00000-0 28272-3 0 9990 2 43186 97.5389 30.7668 0008946 154.3502 205.8176 15.16278334452327 S-Net B 1 43187U 18014H 26125.71425713 .00005007 00000-0 26206-3 0 9994 2 43187 97.5395 30.7626 0009695 150.8680 209.3095 15.16248854452322 S-Net A 1 43188U 18014J 26125.70271953 .00005436 00000-0 28391-3 0 9992 2 43188 97.5406 30.9520 0009536 151.6225 208.5528 15.16285035452323 S-Net C 1 43189U 18014K 26125.71790047 .00005099 00000-0 26678-3 0 9995 2 43189 97.5423 31.0353 0011126 146.0001 214.1946 15.16240498450876 Ten-Koh 1 43677U 18084G 26125.51120841 .00002043 00000-0 15773-3 0 9991 2 43677 98.0785 316.0830 0007443 258.8722 101.1665 15.02761084409758 PO-101 1 43678U 18084H 26125.82008773 .00003565 00000-0 28967-3 0 9994 2 43678 98.1078 320.2185 0012469 317.3336 42.6917 15.00245544409868 QO-100 1 43700U 18090A 26125.76828751 .00000152 00000-0 00000 0 0 9999 2 43700 0.0143 272.7509 0001630 159.8244 93.4581 1.00271653 27250 MinXSS-2 1 43758U 18099A 26125.74611485 .00038376 00000-0 83412-3 0 9994 2 43758 97.4550 200.8794 0008189 68.0484 292.1634 15.44207310407572 AO-95 1 43770U 18099N 26125.85497113 .00012405 00000-0 48707-3 0 9993 2 43770 97.4406 186.2821 0010235 132.5331 227.6773 15.25806505406764 SNUSat 2 1 43782U 18099AA 26125.12436935 .00008334 00000-0 37612-3 0 9990 2 43782 97.4087 179.1840 0012027 88.8433 271.4180 15.21181350406489 SnugLite 1 43784U 18099AC 26125.80260073 .00012655 00000-0 49055-3 0 9990 2 43784 97.3898 180.5231 0004489 88.4733 271.7019 15.26267238406852 ITASat 1 1 43786U 18099AE 26125.39401612 .00009011 00000-0 43869-3 0 9991 2 43786 97.4059 177.7703 0014015 137.3776 222.8549 15.18512633406413 EAGLET 1 1 43790U 18099AJ 26125.38858755 .00004797 00000-0 27779-3 0 9997 2 43790 97.4262 176.1937 0012623 129.1819 231.0535 15.12616285405863 ESEO 1 43792U 18099AL 26125.80488932 .00001536 00000-0 11485-3 0 9997 2 43792 97.3996 165.0041 0013357 115.2487 245.0126 15.04110097405438 JO-97 1 43803U 18099AX 26125.73145963 .00018930 00000-0 60764-3 0 9996 2 43803 97.4154 188.4582 0006949 72.0196 288.1803 15.32332039407124 Suomi 100 1 43804U 18099AY 26125.70237539 .00013279 00000-0 49562-3 0 9999 2 43804 97.4215 186.2797 0011516 75.4770 284.7745 15.27460273406939 ISAT 1 43879U 18111D 26125.80724715 .00064299 00000-0 83010-3 0 9998 2 43879 97.5905 58.0094 0008703 97.4754 262.7490 15.58727543404553 UWE-4 1 43880U 18111E 26125.78606170 .00031912 00000-0 70825-3 0 9997 2 43880 97.5864 52.3144 0010629 111.8642 248.3737 15.43602289404231 Sparrow 1 43881U 18111F 26125.77971485 .00091637 00000-0 93886-3 0 9993 2 43881 97.6128 62.9668 0007541 117.9694 242.2328 15.64648545404728 Prox-1 1 44339U 19036A 26125.86884013 .00014112 00000-0 14111-2 0 9995 2 44339 23.9964 36.7007 0006404 262.4290 97.5482 14.89630767367158 Taurus 1 1 44530U 19059C 26125.75416531 .00011352 00000-0 18280-2 0 9991 2 44530 98.6388 287.9738 0009703 88.8208 271.4109 14.71651363352402 TO-108 1 44881U 19093C 26125.83863120 .00001406 00000-0 16493-3 0 9991 2 44881 97.7540 199.1019 0012365 222.0482 137.9786 14.86453397345122 RS-44 1 44909U 19096E 26125.78716900 .00000018 00000-0 35169-4 0 9992 2 44909 82.5251 7.8829 0216470 243.4164 114.4610 12.79748102296925 SALSAT 1 46495U 20068K 26125.62004694 .00008996 00000-0 31996-3 0 9994 2 46495 97.8866 126.1163 0011706 92.6305 267.6273 15.29178152308852 CSS (TIANHE-1) 1 48274U 21035A 26125.74542565 .00029814 00000-0 31683-3 0 9998 2 48274 41.4665 220.2793 0005313 338.1443 21.9170 15.63368872286539 CUTE 1 49263U 21088D 26125.73875429 .00155954 00000-0 97716-3 0 9996 2 49263 97.4199 221.5222 0000167 36.2471 323.8806 15.76344720255830 TeikyoSat 4 1 49396U 21102B 26125.09699703 .00002830 00000-0 18073-3 0 9991 2 49396 97.3702 156.2531 0013719 83.0889 277.1900 15.09356488246222 Z-Sat 1 49399U 21102E 26125.81523784 .00004623 00000-0 23007-3 0 9994 2 49399 97.3358 162.4268 0017839 40.5850 319.6711 15.17946653247019 KOSEN 1 1 49402U 21102H 26125.33712275 .00010296 00000-0 39894-3 0 9995 2 49402 97.3220 168.3378 0013634 7.1091 353.0339 15.26256273247485 HO-113 1 50466U 21131B 26125.84710387 .00000611 00000-0 20266-3 0 9990 2 50466 98.4957 218.4711 0003363 210.3001 149.7994 14.41317270229018 SNUGLITE 2 1 52899U 22065F 26125.66491318 .00001098 00000-0 21745-3 0 9992 2 52899 98.2145 270.5867 0008178 149.4839 210.6841 14.64267740204774 UmKA 1 (RS40S) 1 57172U 23091G 26125.84560476 .00006416 00000-0 29763-3 0 9990 2 57172 97.5075 184.7150 0011237 266.0052 93.9898 15.20343587157577 CubeBel-2 (EU11S) 1 57175U 23091K 26125.83095751 .00012249 00000-0 44788-3 0 9996 2 57175 97.5071 188.6978 0008503 261.3430 98.6846 15.28189747157835 RS-38S 1 57189U 23091Z 26125.84875723 .00017279 00000-0 51505-3 0 9990 2 57189 97.5107 194.5270 0006983 209.7820 150.3026 15.34712873158195 SONATE-2 1 59112U 24043Q 26125.40299552 .00051717 00000-0 74754-3 0 9994 2 59112 97.5494 273.2935 0006293 3.5443 356.5854 15.55757930121230 GRBBeta 1 60237U 24128C 26125.80568249 .00004169 00000-0 29024-3 0 9993 2 60237 61.9914 4.9223 0046059 125.8444 234.6941 15.06298536 99880 Curium One 1 60242U 24128H 26125.78348854 .00008719 00000-0 50729-3 0 9995 2 60242 61.9801 355.8829 0045729 122.3681 238.1853 15.11840892100045 ROBUSTA-3A 1 60243U 24128J 26125.79119044 .00008454 00000-0 50298-3 0 9991 2 60243 61.9878 358.0954 0046821 119.7795 240.7969 15.11024750100015 CatSat 1 60246U 24125J 26125.83050213 .00046469 00000-0 70176-3 0 9993 2 60246 97.2128 337.9232 0022249 342.2224 17.8250 15.54310807100802 HYPERVIEW-1G (RS66S) 1 61772U 24199AP 26125.82604054 .00090614 00000-0 84877-3 0 9990 2 61772 97.2954 3.7108 0008495 82.2571 277.9654 15.66896638128022 AO-123 1 61781U 24199AY 26125.80186172 .00008279 00000-0 24472-3 0 9995 2 61781 97.3052 354.8621 0015899 100.2252 260.0786 15.35061074127421 JINJUSat 1B 1 63210U 25052A 26125.71259042 .00018355 00000-0 59185-3 0 9995 2 63210 97.4047 22.4457 0002006 197.3470 162.7704 15.32214267 63591 NUSHSAT 1 1 63211U 25052B 26125.68936610 .00021807 00000-0 65663-3 0 9999 2 63211 97.4023 22.8532 0001697 195.3175 164.8017 15.34363086 63629 TEVEL2-4 1 63213U 25052D 26125.45080193 .00027456 00000-0 85744-3 0 9990 2 63213 97.3944 21.8124 0000628 201.0686 159.0531 15.33157722 63560 TEVEL2-5 1 63214U 25052E 26125.66263015 .00020372 00000-0 64039-3 0 9994 2 63214 97.3940 21.9835 0000648 204.9776 155.1435 15.33008938 63598 TEVEL2-6 1 63215U 25052F 26125.28227671 .00026809 00000-0 84255-3 0 9994 2 63215 97.3946 21.5881 0000707 219.0822 141.0369 15.32960172 63537 TEVEL2-1 1 63217U 25052H 26125.68897122 .00019448 00000-0 62157-3 0 9992 2 63217 97.3922 21.6674 0000462 286.2100 73.9091 15.32488289 63581 TEVEL2-3 1 63218U 25052J 26125.22795703 .00024502 00000-0 78112-3 0 9990 2 63218 97.3924 21.2238 0000523 294.6711 65.4476 15.32521521 63518 TEVEL2-2 1 63219U 25052K 26125.68947843 .00019510 00000-0 62340-3 0 9994 2 63219 97.3921 21.6694 0000509 289.3218 70.7969 15.32494100 63588 TEVEL2-9 1 63237U 25052AD 26125.67911194 .00017826 00000-0 60369-3 0 9990 2 63237 97.3982 21.1221 0004279 302.6918 57.3910 15.30631391 63524 TEVEL2-7 1 63238U 25052AE 26125.64695782 .00018099 00000-0 61788-3 0 9999 2 63238 97.3985 21.0231 0004405 303.2479 56.8340 15.30367418 63514 TEVEL2-8 1 63239U 25052AF 26125.65473334 .00018370 00000-0 62741-3 0 9990 2 63239 97.3986 21.0089 0004353 303.8959 56.1868 15.30349510 63519 HYDRA-W 1 63490U 25052BL 26113.93882235 .05662091 24406-5 29537-2 0 9997 2 63490 97.3690 18.2798 0008685 203.5899 156.4993 16.20186780 62336 HADES-ICM (SO-125) 1 63492U 25052BN 26125.23154483 .00799001 00000-0 30672-2 0 9990 2 63492 97.3785 28.6812 0006494 160.2566 199.8957 15.85446468 64000 SPIRONE 1 66657U 25274H 26125.77670800 .00001786 00000-0 17537-3 0 9999 2 66657 97.7475 55.6829 0012818 148.7638 211.4346 14.93374710 23895 K-HERO 1 66660U 25274L 26125.79328977 .00001795 00000-0 17430-3 0 9992 2 66660 97.7477 55.8287 0014571 154.2929 205.9018 14.93800772 23902 SNUGLITE-III DURI 1 66661U 25274M 26125.78245366 .00001389 00000-0 13591-3 0 9995 2 66661 97.7478 55.8369 0015137 155.1982 204.9968 14.93858470 23904 SilverSat 1 66909U 98067XV 26113.44966717 .07226154 12288-4 11979-2 0 9998 2 66909 51.6027 190.0749 0007952 333.4666 26.5949 16.32457272 22308 SAKHACUBE-CHOLBON 1 67290U 25313AU 26125.75785712 .00011680 00000-0 48237-3 0 9999 2 67290 97.3937 201.3469 0010602 140.1760 220.0258 15.24118526 19517 RS95S (QMR-KWT-2) 1 67291U 25313AV 26125.84578816 .00015016 00000-0 59958-3 0 9994 2 67291 97.3938 201.5322 0010405 139.2707 220.9311 15.25194764 19530 Ten-Koh2 1 68261U 25241B 26125.51271422 .00006739 00000-0 29333-3 0 9995 2 68261 51.6498 162.6602 0005997 8.7190 351.3890 15.23355316 8401 JACK-002 1 68417U 26067B 26125.80709587 .00007016 00000-0 33966-3 0 9991 2 68417 97.4546 84.9485 0004041 79.2414 280.9275 15.18871304 5519 DISCO 2 1 68431U 26067R 26125.81782205 .00009488 00000-0 46342-3 0 9993 2 68431 97.4586 84.9519 0004010 119.2533 240.9103 15.18465244 5518 HADES-SA (SpinnyONE) 1 68446U 26067AG 26125.84501443 .00018058 00000-0 89775-3 0 9995 2 68446 97.4393 84.8318 0005928 203.0361 157.0608 15.17681074 5503 PARUS-6U1 1 68456U 26067AS 26125.78297632 .00005905 00000-0 30142-3 0 9992 2 68456 97.4534 84.8226 0004978 192.0311 168.0805 15.17079598 5508 SAL-E 1 68458U 26067AU 26125.45299870 .00008556 00000-0 43412-3 0 9993 2 68458 97.4458 84.4659 0004852 202.8420 157.2598 15.17160249 5450 FSI-SAT 2 1 68792U 26088A 26125.38199463 .00005410 00000-0 36974-3 0 9997 2 68792 97.5012 275.7411 0013362 251.8447 108.1326 15.06483612 1841 OrigamiSat 2 1 68795U 26088D 26125.37002529 .00005045 00000-0 33155-3 0 9997 2 68795 97.5025 275.7582 0014973 223.5851 136.4195 15.07953805 1846 ARICA 2 1 68796U 26088E 26125.83366696 .00005659 00000-0 37015-3 0 9997 2 68796 97.5010 276.2090 0015081 220.0416 139.9702 15.08073864 1910 WASEDA-SAT-ZERO-II 1 68797U 26088F 26125.36882995 .00001342 00000-0 90739-4 0 9999 2 68797 97.5001 275.7549 0014951 221.7249 138.2840 15.08138156 1844 MANGARO-II-Piscus 1 68798U 26088G 26125.76400299 .00005408 00000-0 34975-3 0 9993 2 68798 97.5020 276.1503 0018363 223.6933 136.2842 15.08465020 1903 IO-86 1 40931U 25360.30710720 .00000000 00000-0 12800-3 0 00 2 40931 6.0006 332.5373 0012733 338.8432 8.1437 14.79075515 01 LILIUM-4 1 71922C 26067AC 26089.50133053 -.00014632 00000 0 -74472-3 0 04 2 71922 97.4497 49.1617 0004341 5.9603 355.7042 15.16896692 16